Über Lemur-2 Arianna
Group: 3 satellites
Beschreibung wird geladen...
Live-Position
3D-Globus wird geladen...
Nächste Überflüge
Höhenverlauf
Altitude vs Time
uPlot chart will show altitude changes over time
Zweizeiliger Elementsatz
1 62699U 25009CU 25340.87801363 .00017198 00000-0 14300-2 0 9994
2 62699 97.7209 58.9957 0001621 335.9714 24.1433 14.98770797 48719
Epoch: 6. Dez. 2025 •
Age: 19 hours
Aktueller Status
Höhe 587.3 km
Geschwindigkeit 7.57 km/s
Subsatellitenpunkt -45.80°S,
109.65°E
Startdatum 14. Jan. 2025
Alter 0.8 years
Typ other
Technische Details
Klassifizierung Payload
Masse 7.60 kg
Trockenmasse 7.60 kg
Gesamtmasse 7.60 kg
Länge 0.30 m
Durchmesser 0.10 m
Spannweite 1.00 m
Form Box+ 2 pan
Hersteller SPIREG
Bus-Typ Cubesat 3U
Phasenstatus In Orbit
Besitzer/Staat SPIRE/US
Große Konstellationen
Loading constellations...